GFSSW_prec_cloud_174.txt.gz
Cloud_Cover
100 100 100 100 100 100 100 100 51 100 100 100 100 16 7 28 60 11 9 14 22 3 1 0 0 0 0 4 0 0 0 0 0 0 0 0 0 0 0 0 0 0 0 0 0
95 31 39 100 100 100 100 100 89 27 19 46 1 3 100 100 100 100 99 26 2 0 0 0 0 0 0 0 0 0 0 0 0 0 0 0 0 0 0 0 0 0 0 0 0
100 33 6 100 100 100 100 100 100 100 100 6 0 65 100 40 0 9 20 0 0 0 0 0 0 0 0 0 0 0 0 0 0 0 0 0 0 0 0 0 0 0 0 0 0
100 40 5 77 58 8 36 74 100 100 97 4 1 47 22 24 13 4 0 0 0 0 0 0 0 0 0 0 0 0 0 0 0 0 0 0 0 0 0 0 0 0 0 0 0
100 72 23 5 5 3 12 17 57 44 51 15 0 0 62 2 49 41 6 0 0 0 0 0 0 0 0 0 0 0 0 0 0 0 0 0 0 0 0 0 0 0 0 0 0
100 31 2 0 0 0 10 17 0 0 0 0 0 0 0 0 0 0 0 0 0 0 0 0 0 0 0 0 0 0 0 0 0 0 0 0 0 0 0 0 0 0 0 0 0
27 11 0 0 0 0 0 0 0 0 0 0 0 0 0 0 0 0 0 0 3 5 5 0 0 0 0 0 0 0 0 0 0 0 0 0 0 0 0 0 0 0 0 0 0
33 14 0 0 0 0 0 0 0 0 0 0 0 0 0 0 0 0 0 0 37 5 5 5 0 0 0 0 0 0 0 0 0 0 0 0 0 0 0 0 0 0 0 0 0
11 5 0 0 0 0 0 0 0 0 0 0 0 0 0 0 0 0 0 0 4 7 59 100 82 2 0 0 0 0 0 0 0 0 0 0 0 0 0 0 0 0 0 0 0
0 0 0 0 0 0 0 0 0 0 0 0 0 0 0 0 0 0 0 5 3 25 100 91 100 75 4 0 0 0 0 0 0 0 0 0 0 0 0 0 0 0 0 0 0
0 0 0 0 0 0 0 0 0 0 0 0 0 0 0 0 0 0 0 2 14 63 55 78 99 10 5 0 0 0 0 0 0 0 0 0 0 0 0 0 0 0 0 0 0
2 2 0 0 0 0 2 1 0 0 0 0 0 0 0 2 0 0 0 3 5 5 5 40 40 4 0 0 0 0 0 0 0 0 0 0 0 0 0 0 0 0 0 0 0
72 17 2 0 0 2 3 5 0 0 0 0 0 0 0 4 5 5 5 5 4 5 68 11 36 5 0 0 0 0 0 0 0 0 0 0 0 0 0 0 0 0 0 0 0
91 5 5 0 0 3 5 5 4 0 1 0 0 1 0 5 26 36 5 5 2 3 80 96 7 5 5 0 0 0 0 0 0 0 0 0 0 0 0 0 0 0 0 0 0
100 41 63 76 95 68 100 15 5 0 0 5 0 0 0 2 5 78 100 40 26 5 5 68 48 56 5 3 0 0 0 0 0 0 0 0 1 0 0 0 0 0 0 0 0
100 100 100 100 100 100 100 89 4 3 0 5 5 0 2 5 5 5 53 41 17 5 0 5 20 5 5 5 1 0 0 0 0 0 2 0 0 0 0 0 0 0 0 0 0
100 100 100 100 100 100 100 98 5 5 0 3 5 3 5 3 5 5 5 5 5 5 2 0 1 2 4 5 2 0 0 0 0 0 0 0 0 0 0 0 0 4 5 4 2
100 100 100 100 100 100 100 72 6 24 4 3 5 5 5 5 5 5 5 5 5 5 2 1 0 0 0 0 0 0 0 0 0 0 0 0 3 5 5 2 0 0 0 0 0
100 100 100 100 100 100 100 77 21 74 10 5 5 5 5 5 5 5 1 0 3 2 1 3 0 0 0 0 0 0 0 0 0 0 5 1 5 9 0 0 0 0 0 0 0
100 100 100 100 100 100 100 100 11 42 8 10 5 5 5 5 5 5 5 2 0 0 0 2 5 4 0 2 3 2 0 0 21 0 0 0 3 5 0 0 0 0 0 0 0
100 100 100 100 100 100 100 100 91 98 99 57 32 5 5 5 5 5 5 5 5 5 4 5 5 4 2 5 5 2 0 4 2 5 5 25 0 0 0 0 0 0 0 0 0
100 100 100 100 100 100 100 100 100 96 74 98 24 21 5 5 5 5 5 5 5 5 5 5 5 5 5 5 5 5 3 2 5 1 63 68 18 0 0 0 0 0 0 0 0
100 100 100 100 94 100 100 100 100 100 67 72 20 5 5 5 4 5 5 5 5 5 5 5 5 5 0 1 0 3 0 8 8 5 34 32 0 0 0 0 0 0 0 0 0
100 100 100 100 98 100 100 100 100 100 50 91 98 5 5 5 6 4 4 4 1 5 5 4 5 1 2 0 3 3 5 5 9 64 5 5 0 0 0 0 0 0 0 0 0
100 100 100 100 100 100 100 100 100 100 100 85 91 87 5 8 8 5 12 5 5 5 5 5 60 5 4 4 5 5 5 5 31 5 93 2 4 0 2 0 0 0 0 0 0
100 100 100 100 100 100 100 100 100 100 100 91 90 100 34 90 5 5 71 5 5 5 5 39 72 89 57 19 5 68 5 6 6 6 9 5 11 5 0 0 0 0 0 0 0
100 100 100 100 100 100 100 100 100 100 100 100 100 90 100 71 81 100 100 9 6 5 5 67 95 96 68 5 5 6 5 5 5 32 26 74 10 5 0 0 5 0 3 4 5

GFSSW_prec_cloud_180.txt.gz
Cloud_Cover
100 94 35 16 52 68 100 100 100 100 99 65 60 5 20 5 5 26 44 94 61 0 0 0 0 0 0 0 0 0 0 0 0 0 0 0 0 0 0 0 0 0 0 0 0
100 100 34 66 47 32 70 71 76 100 58 21 5 29 98 69 20 32 42 13 0 0 0 0 0 0 0 0 0 0 0 0 0 0 0 0 0 0 0 0 0 0 0 0 0
100 100 58 17 28 26 56 82 69 100 100 91 12 100 100 18 22 15 0 0 0 0 0 0 0 0 0 0 0 0 0 0 0 0 0 0 0 0 0 0 0 0 0 0 0
100 100 100 71 10 6 24 36 92 100 20 5 6 100 100 19 0 0 0 0 0 0 0 0 0 0 0 0 0 0 0 0 0 0 0 0 0 0 0 0 0 0 0 0 0
100 100 100 100 100 100 39 25 21 72 100 5 6 100 25 10 9 0 0 0 0 0 0 0 0 0 0 0 0 0 0 0 0 0 0 0 0 0 0 0 0 0 0 0 0
87 94 52 48 5 5 5 5 5 5 5 1 2 24 0 0 0 0 0 0 0 0 0 0 0 0 0 0 0 0 0 0 0 0 0 0 0 0 0 0 0 0 0 0 0
96 5 5 5 11 53 5 5 5 5 1 0 0 0 0 0 0 0 0 0 0 0 0 0 0 0 0 3 0 0 0 0 0 0 0 0 0 0 0 0 0 0 0 0 0
100 14 5 5 5 5 5 5 5 2 0 0 0 0 0 0 0 0 0 0 0 0 0 0 0 0 5 82 6 1 0 0 0 0 0 0 0 0 0 0 0 0 0 0 0
100 99 20 6 5 5 5 5 4 2 0 0 0 0 0 0 0 0 0 0 0 0 0 0 0 0 0 27 100 100 12 0 0 0 0 0 0 0 0 0 0 0 0 0 0
100 100 69 5 5 4 0 0 0 0 0 0 0 0 0 0 0 0 0 0 0 0 0 0 0 0 0 1 33 100 100 72 1 0 0 0 0 0 0 0 0 0 0 0 0
100 100 100 76 5 5 5 5 0 0 0 0 0 0 0 0 0 0 0 0 0 0 0 0 0 4 5 5 15 5 9 96 6 4 0 0 0 0 0 0 0 0 0 0 0
100 100 100 100 100 23 5 3 5 0 0 0 0 0 0 0 0 0 0 0 0 0 0 0 0 5 58 96 100 99 2 4 5 4 0 0 0 0 0 0 0 0 0 0 0
100 100 100 100 100 100 72 1 0 0 0 0 0 0 0 0 0 0 0 0 0 0 0 0 4 5 5 54 97 100 96 2 0 0 0 0 0 0 0 0 0 0 0 0 0
100 100 100 100 100 100 100 98 4 0 0 0 0 0 0 0 0 0 0 0 0 0 0 5 4 5 1 3 8 96 100 66 4 0 0 0 0 0 0 0 0 0 0 0 0
100 100 100 100 100 100 100 100 99 6 2 1 0 0 0 0 4 0 0 0 0 0 0 2 5 5 0 0 0 3 5 5 5 0 0 0 0 0 0 0 0 0 0 0 0
100 100 100 100 100 100 100 100 100 52 38 15 3 0 0 16 21 5 0 0 0 0 0 0 5 0 0 0 0 0 0 0 0 0 0 0 0 0 0 0 0 0 0 0 2
100 100 100 100 100 100 100 100 100 100 100 100 15 5 4 94 72 5 5 0 0 0 0 0 0 5 5 2 0 0 0 0 2 0 0 0 0 0 0 0 0 0 0 0 0
100 100 100 100 100 100 100 100 100 100 100 100 100 30 5 84 100 37 5 1 0 3 5 1 2 0 0 1 5 4 0 0 0 2 4 0 0 0 0 0 0 0 0 0 0
100 100 100 100 100 100 100 100 100 100 100 100 100 62 26 81 95 88 51 5 0 3 5 5 5 3 0 0 0 0 0 0 0 3 3 3 0 0 0 0 0 0 0 0 0
100 100 100 100 100 100 99 80 100 100 100 100 100 100 16 8 36 100 67 66 3 0 5 5 12 5 5 5 5 2 0 0 0 0 0 5 2 0 0 0 0 0 0 0 0
100 100 100 100 100 100 55 8 100 100 100 100 100 100 100 6 10 94 100 99 5 4 5 5 5 5 2 0 0 0 0 0 0 0 0 3 5 0 0 0 0 0 0 0 0
100 100 100 100 100 100 100 46 100 100 100 100 100 100 97 37 5 34 100 90 86 6 5 2 13 4 0 0 0 0 0 0 0 3 3 1 5 0 0 0 0 0 0 0 0
100 100 100 100 100 100 95 100 100 100 100 100 100 100 100 69 42 33 100 76 80 94 15 5 5 4 4 1 1 0 0 2 1 0 3 0 0 0 0 0 0 0 0 0 0
100 100 100 100 100 98 100 100 100 100 100 100 100 100 100 98 65 62 80 100 91 100 92 5 5 5 4 2 5 5 5 0 0 2 1 2 0 0 0 0 0 0 0 0 0
100 100 100 98 100 100 100 100 100 100 100 100 100 100 100 100 100 100 93 100 29 88 31 14 64 64 5 5 5 5 5 5 5 1 0 0 1 3 0 0 4 5 0 0 0
100 100 100 99 99 100 100 100 100 100 100 100 100 100 100 100 100 100 95 100 100 100 80 48 56 27 5 5 5 7 67 5 5 5 5 5 9 5 5 5 32 5 0 4 5
99 99 100 100 100 100 100 97 100 100 100 100 100 100 100 100 100 98 100 100 81 87 96 33 59 43 31 21 4 5 62 58 6 8 5 27 84 42 29 96 94 5 5 5 5

GFSSW_prec_cloud_183.txt.gz
Cloud_Cover
100 100 100 92 100 100 99 99 62 72 5 24 59 38 5 5 14 38 92 49 50 1 0 0 4 4 0 20 0 0 0 0 0 0 0 0 0 0 0 0 0 0 0 0 0
100 100 100 31 64 70 100 100 100 100 100 92 64 18 20 5 50 60 19 32 2 1 0 0 0 0 0 11 0 0 0 0 0 0 0 0 0 0 0 0 0 0 0 0 0
100 100 100 35 35 99 100 100 100 100 63 21 5 33 5 10 34 52 5 5 4 5 4 0 0 0 3 6 3 0 0 0 0 0 0 0 0 0 0 0 0 0 0 0 0
100 100 100 100 14 12 90 100 100 100 90 5 5 21 13 39 10 20 1 0 0 0 0 0 0 0 0 0 6 0 0 0 0 0 0 0 0 0 0 0 0 0 0 0 0
100 100 100 100 100 82 43 30 100 100 89 9 5 65 41 52 49 0 0 0 0 0 0 0 0 0 0 0 0 0 0 0 0 0 0 0 0 0 0 0 0 0 0 0 0
100 100 100 100 100 100 68 5 34 100 98 7 5 5 81 3 0 0 0 0 0 0 0 0 0 0 0 0 0 0 0 0 0 0 0 0 0 0 0 0 0 0 0 0 0
100 100 100 100 100 100 100 87 11 15 15 13 5 19 8 0 0 0 0 0 0 0 0 0 0 0 0 0 0 0 0 0 0 0 0 0 0 0 0 0 0 0 0 0 0
100 100 100 100 100 100 100 100 52 5 5 5 5 5 2 0 0 0 0 0 0 0 0 0 0 0 0 0 0 0 5 5 0 0 0 0 0 0 0 0 0 0 0 0 0
39 100 100 100 100 100 100 100 100 65 5 5 5 5 5 0 0 0 0 0 0 0 0 0 0 0 0 0 0 0 3 44 99 17 0 0 0 0 0 0 0 0 0 0 0
100 86 100 100 100 100 100 100 100 84 64 5 5 5 2 0 0 0 0 0 0 0 0 0 0 0 0 0 0 0 0 25 100 100 77 0 0 0 0 0 0 0 0 0 0
100 62 100 89 100 100 100 79 100 91 68 45 5 5 0 0 0 0 0 0 0 0 0 0 0 0 0 1 5 5 75 19 5 96 99 8 0 0 0 0 0 0 0 0 0
100 100 98 100 40 100 100 100 86 100 22 10 5 5 4 0 0 0 0 0 0 0 0 0 0 0 0 0 4 84 100 100 6 5 19 6 4 0 0 0 0 0 0 0 0
100 100 100 100 100 87 100 100 100 90 70 24 5 5 5 4 0 0 0 0 0 0 0 0 0 0 0 3 0 5 50 100 93 31 5 5 1 0 0 0 0 0 0 0 0
100 100 100 100 100 96 100 100 100 100 99 55 36 23 5 5 0 0 0 0 0 0 0 0 0 0 0 1 2 0 4 84 100 96 2 0 0 0 0 0 0 0 0 0 0
100 100 100 100 100 100 100 100 100 100 100 100 83 14 5 1 0 0 0 0 0 0 0 0 0 0 0 0 2 0 0 5 46 87 51 7 0 0 0 0 0 0 0 0 0
100 100 100 100 100 100 100 100 100 100 100 100 100 43 8 2 1 0 0 0 0 4 0 0 0 0 0 5 4 0 0 0 4 5 85 6 0 0 0 0 0 0 0 0 0
100 100 100 100 100 100 100 100 100 100 100 100 100 100 100 56 4 0 0 0 1 5 0 0 0 0 4 3 3 5 5 3 4 4 4 0 0 0 0 0 0 0 0 0 0
100 100 100 100 100 100 100 100 100 100 100 100 100 100 100 100 30 5 0 0 5 5 0 0 0 0 5 5 5 1 4 5 5 0 0 0 0 0 0 0 0 0 0 0 0
5 100 100 100 100 100 100 100 91 100 100 100 100 100 100 100 100 6 5 5 7 95 5 0 4 0 5 5 5 5 5 4 4 3 1 0 0 0 0 0 0 0 0 0 0
100 100 100 100 100 100 100 94 100 97 100 100 100 100 100 100 100 100 83 26 65 100 5 4 0 5 5 5 5 5 0 0 1 4 5 5 0 0 0 0 0 1 0 0 0
100 100 100 100 100 100 100 67 86 100 100 100 100 100 100 100 100 100 100 90 12 43 88 13 5 5 5 2 5 5 0 0 3 0 3 1 0 0 0 0 0 1 0 0 0
100 100 100 100 100 100 100 100 90 100 100 100 100 100 100 100 100 100 100 100 96 6 70 48 62 10 5 5 0 0 0 0 0 24 2 0 0 0 0 0 0 0 0 0 0
100 100 100 100 100 100 100 100 100 99 100 100 100 100 100 100 100 100 100 100 100 18 15 94 98 35 5 5 6 4 0 4 3 0 0 0 0 0 0 0 0 0 0 0 0
100 97 100 100 100 100 100 100 98 100 100 100 100 100 100 100 100 100 100 100 100 80 14 15 92 99 5 49 41 5 5 4 0 0 0 5 0 0 0 0 1 3 3 3 5
100 100 19 100 100 100 100 100 100 100 100 100 100 100 100 100 100 100 100 100 100 63 5 39 22 55 99 5 6 14 13 5 5 5 2 5 24 9 3 4 5 5 5 8 6
100 100 100 100 100 100 100 100 100 100 100 100 99 100 100 100 100 100 100 100 66 28 7 42 96 100 23 100 14 5 81 5 5 5 5 5 81 5 5 5 5 5 5 5 3
100 100 72 100 100 100 100 100 100 100 100 100 100 100 100 100 100 100 100 98 99 100 100 29 98 100 44 83 73 8 100 17 5 5 5 5 5 5 5 5 5 5 5 2 0

GFSSW_prec_cloud_186.txt.gz
Cloud_Cover
100 100 100 100 80 93 13 92 100 100 78 88 100 100 100 73 62 5 44 55 9 0 0 0 0 0 0 1 1 0 0 0 0 0 0 31 0 0 0 0 0 0 0 0 0
100 100 100 100 81 77 97 98 100 100 100 100 92 74 100 100 58 62 48 5 5 1 0 0 0 0 0 1 0 0 0 0 0 0 0 0 0 0 0 0 0 0 0 0 0
26 100 100 100 100 100 100 100 100 100 100 100 100 100 100 100 86 7 9 5 5 5 5 0 0 0 10 8 0 0 0 0 0 0 0 0 0 0 0 0 0 0 0 0 0
100 100 100 100 100 100 100 100 100 100 100 100 100 100 100 84 80 64 5 5 5 5 1 0 0 0 1 6 1 0 0 0 0 0 0 0 0 0 0 0 0 0 0 0 0
100 100 100 100 100 100 100 100 100 100 100 100 100 100 98 87 54 14 5 5 5 5 0 0 0 0 0 3 1 0 0 0 0 0 0 0 0 0 0 0 0 0 0 0 0
100 100 100 100 100 100 100 100 100 100 100 100 100 100 68 87 60 36 5 5 5 0 0 0 0 1 0 0 0 0 0 0 0 0 0 0 0 0 0 0 0 0 0 0 0
36 70 100 100 100 100 100 100 100 100 100 100 100 88 46 14 15 5 5 3 0 0 0 0 0 0 0 0 0 0 0 0 0 0 0 0 0 0 0 0 0 0 0 0 0
82 86 5 4 99 100 100 100 100 100 100 100 100 100 100 10 5 5 5 0 0 0 0 0 0 0 0 0 0 0 0 0 0 0 0 0 0 0 0 0 0 0 0 0 0
57 30 5 3 4 100 100 100 100 100 100 100 100 100 100 34 5 5 5 0 0 0 0 0 0 0 0 0 0 0 0 0 0 0 4 2 3 0 0 0 0 0 0 0 0
9 36 75 100 24 42 100 100 100 100 100 100 100 98 95 63 24 5 1 0 0 0 0 0 0 0 0 0 0 0 0 0 0 0 0 26 10 4 0 0 0 0 0 0 0
4 23 5 92 100 69 98 100 100 100 75 100 100 100 74 5 6 5 0 0 0 0 0 0 0 0 0 0 0 0 0 0 2 5 0 0 92 5 5 0 0 0 0 0 0
84 42 72 4 38 100 99 100 100 100 100 99 100 100 100 55 5 5 2 2 0 0 0 0 0 0 0 0 0 0 0 0 0 7 5 1 5 64 5 5 0 0 0 0 0
61 93 38 59 8 92 100 100 100 100 100 100 100 100 100 93 54 8 5 5 0 0 0 0 0 0 0 0 0 0 0 0 0 16 28 23 0 5 5 5 2 0 0 0 0
2 100 100 100 64 83 100 100 100 100 100 100 100 100 100 100 93 75 5 5 0 0 0 0 0 0 0 0 0 0 0 0 0 0 23 79 0 3 2 0 0 0 0 0 0
0 31 100 98 100 60 100 100 100 76 42 100 100 100 100 100 100 52 5 2 0 2 0 0 0 0 0 0 0 0 0 0 0 0 2 5 4 5 2 0 0 0 0 0 0
8 30 88 100 100 97 100 100 100 100 46 100 100 100 100 100 100 69 5 5 2 0 0 0 0 0 0 0 0 0 0 0 0 0 1 3 0 34 10 0 0 0 0 0 0
45 77 100 93 95 41 100 100 100 100 4 83 100 100 100 100 100 100 8 5 5 0 0 0 0 0 1 0 0 0 0 4 5 7 5 0 0 4 1 0 0 0 0 0 0
2 100 100 100 100 98 100 100 100 99 73 99 100 100 100 100 100 100 94 10 5 2 2 0 0 1 4 0 0 0 0 5 4 3 0 0 0 0 0 0 0 0 0 0 0
4 95 100 100 100 100 100 100 100 100 100 99 100 100 100 100 100 100 100 92 5 5 5 1 0 0 5 1 0 0 0 0 0 4 3 0 0 0 0 0 0 0 0 0 0
10 100 100 94 100 100 100 100 42 100 100 100 100 100 100 100 100 100 100 100 100 68 6 5 5 1 6 10 1 2 0 2 5 3 1 0 0 0 0 0 0 0 0 0 0
55 100 100 98 100 100 100 100 89 100 100 100 100 100 100 100 100 100 100 100 100 100 67 5 5 5 24 64 6 5 5 3 2 5 5 0 0 0 0 0 0 0 0 0 0
74 99 100 100 100 100 100 100 100 100 100 100 100 100 100 100 100 100 100 100 100 100 54 25 20 5 64 100 64 26 4 0 5 5 5 5 3 0 0 0 0 0 0 0 0
56 69 100 100 99 100 100 100 100 100 100 100 100 100 100 100 100 100 100 100 100 100 94 19 21 29 6 21 100 73 5 5 3 2 5 4 1 2 0 0 4 0 0 0 0
76 100 100 100 100 93 100 100 100 100 100 100 100 100 100 100 100 100 100 100 100 100 100 16 5 8 37 15 9 99 70 26 5 5 0 19 1 0 0 3 5 2 0 1 5
100 100 43 94 100 100 100 100 100 100 100 100 100 100 100 100 100 100 100 100 100 100 84 25 44 8 5 6 5 8 98 98 98 12 5 4 21 0 0 0 1 1 5 5 5
97 93 100 100 85 100 100 100 100 100 100 100 100 100 100 100 100 100 100 100 100 100 91 80 46 22 5 11 10 13 62 42 33 80 100 8 5 0 1 0 0 0 1 5 5
100 98 100 100 100 100 74 100 100 100 100 100 100 100 100 100 100 100 100 100 100 97 100 88 100 100 78 59 16 6 100 96 100 56 5 45 6 5 5 0 0 0 0 0 4